Hourly Data Report for September 18, 2017

All times are specified in Local Standard Time (LST). Add 1 hour to adjust for Daylight Saving Time where and when it is observed.

BAS CARAQUET
NEW BRUNSWICK

47°48'08.000" N
64°50'00.000" W
5.00 m
8100467
71598
WXS

Download Data

Hourly Data (September 2017)
Hourly Data Report for September 18, 2017
Temp Definition
°C
Dew Point Temp Definition
°C
Rel Hum Definition
%
Wind Dir Definition
10's deg

Wind Spd Definition
km/h
Visibility Definition
km
Stn Press Definition
kPa
Hmdx Definition


Wind Chill Definition


Weather Definition


TIME
00:00 11.1 11.0 99 7 7   102.34     LegendNANA
01:00 11.4 11.3 99 7 7   102.35     LegendNANA
02:00 11.5 11.4 99 8 5   102.32     LegendNANA
03:00 11.7 11.6 99 8 7   102.33     LegendNANA
04:00 11.6 11.4 99 8 8   102.33     LegendNANA
05:00 11.6 11.4 99 7 11   102.39     LegendNANA
06:00 11.4 11.3 99 7 10   102.45     LegendNANA
07:00 11.4 11.3 99 9 9   102.45     LegendNANA
08:00 12.1 11.8 98 8 8   102.47     LegendNANA
09:00 12.6 11.8 95 9 7   102.53     LegendNANA
10:00 13.3 12.0 92 10 6   102.51     LegendNANA
11:00 14.0 12.0 88 9 9   102.50     LegendNANA
12:00 14.6 12.2 86 10 8   102.49     LegendNANA
13:00 14.2 11.8 85 9 8   102.47     LegendNANA
14:00 14.6 12.3 86 10 8   102.45     LegendNANA
15:00 14.4 12.2 87 10 8   102.45     LegendNANA
16:00 14.3 12.0 86 10 8   102.46     LegendNANA
17:00 14.1 12.1 88 10 7   102.45     LegendNANA
18:00 13.8 12.2 90 9 6   102.44     LegendNANA
19:00 13.8 12.6 92 10 5   102.43     LegendNANA
20:00 14.0 13.0 94 11 4   102.46     LegendNANA
21:00 14.0 13.3 96 10 2   102.45     LegendNANA
22:00 14.1 13.6 97   0   102.45     LegendNANA
23:00 14.1 13.8 98 7 2   102.39     LegendNANA

Notes on Data Quality.

Legend

  • E = Estimated
  • M = Missing
  • NA = Not Available
  • ‡ = Partner data that is not subject to review by the National Climate Archives
Date modified: